NIMBUS 2 DEB, 28207

Orbit data source: Space-Track

NIMBUS 2 DEB, 28207 is space debris in SSO originally from a launch on Sun, 15 May 1966 UTC launched from the Air Force Western Test Range (AFWTR). Debris objects in space refer to the collection of defunct objects orbiting the Earth. Examples of debris include non-operational satellites, rocket bodies, and fragments generated from explosions, collisions, or faulty payload assembly.

Loading next visibility...
Identifier
28207, 1966-040V
Orbit
SSO
Country
Flag of USUS
Related business
Manufacturer
Unknown
Mission
Spacecraft
Bus & Motor
Unknown
Mass
Unknown
Launch date (UTC)
1966-05-15 (59 years ago)
Launch vehicle
Unknown
Launch site
Air Force Western Test Range (AFWTR)
Object type
Payload
Rocket body
Debris
Shape & HBR
Unknown shape, 0.1 m
Radar Cross Section
Small (<0.1 m²)

Expand to show TLE details & history
Last TLE update: 1 day ago

TLE from 1 day ago
0 NIMBUS 2 DEB
1 28207U 66040V   25286.08494292  .00004046  00000-0  43912-2 0  9991
2 28207 100.2795 323.5872 0041949  35.8185 352.3340 13.73220446579173
Epoch: 2025-10-13T02:02Z
TLE epoch observation values (Epoch: 2025-10-13T02:02:19.068Z)
Latitude
27.64024°
Longitude
-94.30646°
Altitude
960.685 km
Speed
7.389 km/s
True Right ascension
21h 12m 39s
True Declination
27° 30' 11"
Sunlit
Object was in full shadow at epoch
Visualization orbit readout
Latitude
Unknown
Longitude
Unknown
Altitude
Unknown
Speed
Unknown
Apparent Right ascension
Unknown
Apparent Declination
Unknown
Sunlit
N/A
Visualization observer readout
Local Sidereal Time
01:38:10
Azimuth
Unknown
Elevation
Unknown
Doppler factor
Unknown
Orbital elements
Apogee altitude
1,016.222 km
Perigee altitude
954.444 km
Semi-major axis
7,363.47 km
Eccentricity
0.00419
Inclination
100.2795°
RAAN
323.5872°
Arg. of periapsis
35.8185°
True anomaly
352.26954°
Mean anomaly
352.334°
Eccentric anomaly
352.3018°
Mean motion
3.43494 °/min
Orbital period
104.81 mins
BSTAR
0.0043912
Loading maneuver chart data...
Computing Atmospheric mass density...
Loading historical data...
Loading historical data...
Loading historical data...
Loading historical data...
Loading historical data...
Loading historical data...
Loading historical data...

Documentation

Showing up to 5 results
|